owner,sensor,date,latitude,longitude,vertical_datum,mass_concentration_of_oxygen_in_sea_water,qcFlag 
DISL,ioos:station:DISL:KATA:1,2011-09-01T00:00:00Z,30.2583,-88.2131,4.438,5.54,1111122 
DISL,ioos:station:DISL:KATA:1,2011-09-01T00:30:00Z,30.2583,-88.2131,4.46,6.31,1111122 
DISL,ioos:station:DISL:KATA:1,2011-09-01T01:00:00Z,30.2583,-88.2131,4.484,6.39,1111122 
DISL,ioos:station:DISL:KATA:1,2011-09-01T01:30:00Z,30.2583,-88.2131,4.522,6.46,1111122 
DISL,ioos:station:DISL:KATA:1,2011-09-01T02:00:00Z,30.2583,-88.2131,4.561,6.55,1111122 
DISL,ioos:station:DISL:KATA:1,2011-09-01T02:30:00Z,30.2583,-88.2131,4.585,6.59,1111122 
DISL,ioos:station:DISL:KATA:1,2011-09-01T03:00:00Z,30.2583,-88.2131,4.617,6.5,1111122 
DISL,ioos:station:DISL:KATA:1,2011-09-01T03:30:00Z,30.2583,-88.2131,4.636,2.15,1111122 
DISL,ioos:station:DISL:KATA:1,2011-09-01T04:00:00Z,30.2583,-88.2131,4.655,1.84,1111122 
DISL,ioos:station:DISL:KATA:1,2011-09-01T04:30:00Z,30.2583,-88.2131,4.674,2.18,1111122 
DISL,ioos:station:DISL:KATA:1,2011-09-01T05:00:00Z,30.2583,-88.2131,4.676,2.19,1111122 
DISL,ioos:station:DISL:KATA:1,2011-09-01T05:30:00Z,30.2583,-88.2131,4.675,2.26,1111122 
DISL,ioos:station:DISL:KATA:1,2011-09-01T06:00:00Z,30.2583,-88.2131,4.685,2.26,1111122 
DISL,ioos:station:DISL:KATA:1,2011-09-01T06:30:00Z,30.2583,-88.2131,4.676,2.2,1111122 
DISL,ioos:station:DISL:KATA:1,2011-09-01T07:00:00Z,30.2583,-88.2131,4.669,2.35,1111122 
DISL,ioos:station:DISL:KATA:1,2011-09-01T07:30:00Z,30.2583,-88.2131,4.671,2.23,1111122 
DISL,ioos:station:DISL:KATA:1,2011-09-01T08:00:00Z,30.2583,-88.2131,4.669,2.34,1111122 
DISL,ioos:station:DISL:KATA:1,2011-09-01T08:30:00Z,30.2583,-88.2131,4.657,2.28,1111122 
DISL,ioos:station:DISL:KATA:1,2011-09-01T09:00:00Z,30.2583,-88.2131,4.63,2.14,1111122 
DISL,ioos:station:DISL:KATA:1,2011-09-01T09:30:00Z,30.2583,-88.2131,4.608,4.85,1111122 
DISL,ioos:station:DISL:KATA:1,2011-09-01T10:00:00Z,30.2583,-88.2131,4.579,4.75,1111122 
DISL,ioos:station:DISL:KATA:1,2011-09-01T10:30:00Z,30.2583,-88.2131,4.568,4.58,1111122 
DISL,ioos:station:DISL:KATA:1,2011-09-01T11:00:00Z,30.2583,-88.2131,4.566,4.78,1111122 
DISL,ioos:station:DISL:KATA:1,2011-09-01T11:30:00Z,30.2583,-88.2131,4.506,5.02,1111122 
DISL,ioos:station:DISL:KATA:1,2011-09-01T12:00:00Z,30.2583,-88.2131,4.494,4.98,1111122 
DISL,ioos:station:DISL:KATA:1,2011-09-01T12:30:00Z,30.2583,-88.2131,4.489,5.23,1111122 
DISL,ioos:station:DISL:KATA:1,2011-09-01T13:00:00Z,30.2583,-88.2131,4.472,5.17,1111122 
DISL,ioos:station:DISL:KATA:1,2011-09-01T13:30:00Z,30.2583,-88.2131,4.453,5.14,1111122 
DISL,ioos:station:DISL:KATA:1,2011-09-01T14:00:00Z,30.2583,-88.2131,4.433,4.19,1111122 
DISL,ioos:station:DISL:KATA:1,2011-09-01T14:30:00Z,30.2583,-88.2131,4.423,4.09,1111122 
DISL,ioos:station:DISL:KATA:1,2011-09-01T15:00:00Z,30.2583,-88.2131,4.435,3.9,1111122 
DISL,ioos:station:DISL:KATA:1,2011-09-01T15:30:00Z,30.2583,-88.2131,4.443,3.79,1111122 
DISL,ioos:station:DISL:KATA:1,2011-09-01T16:00:00Z,30.2583,-88.2131,4.444,3.64,1111122 
DISL,ioos:station:DISL:KATA:1,2011-09-01T16:30:00Z,30.2583,-88.2131,4.439,3.68,1111122 
DISL,ioos:station:DISL:KATA:1,2011-09-01T17:00:00Z,30.2583,-88.2131,4.45,3.58,1111122 
DISL,ioos:station:DISL:KATA:1,2011-09-01T17:30:00Z,30.2583,-88.2131,4.453,3.55,1111122 
DISL,ioos:station:DISL:KATA:1,2011-09-01T18:00:00Z,30.2583,-88.2131,4.44,3.59,1111122 
DISL,ioos:station:DISL:KATA:1,2011-09-01T18:30:00Z,30.2583,-88.2131,4.435,3.47,1111122 
DISL,ioos:station:DISL:KATA:1,2011-09-01T19:00:00Z,30.2583,-88.2131,4.442,3.36,1111122 
DISL,ioos:station:DISL:KATA:1,2011-09-01T19:30:00Z,30.2583,-88.2131,4.434,3.32,1111122 
DISL,ioos:station:DISL:KATA:1,2011-09-01T20:00:00Z,30.2583,-88.2131,4.423,3.76,1111122 
DISL,ioos:station:DISL:KATA:1,2011-09-01T20:30:00Z,30.2583,-88.2131,4.454,4.92,1111122 
DISL,ioos:station:DISL:KATA:1,2011-09-01T21:00:00Z,30.2583,-88.2131,4.475,5.58,1111122 
DISL,ioos:station:DISL:KATA:1,2011-09-01T21:30:00Z,30.2583,-88.2131,4.49,5.56,1111122 
DISL,ioos:station:DISL:KATA:1,2011-09-01T22:00:00Z,30.2583,-88.2131,4.509,5.63,1111122 
DISL,ioos:station:DISL:KATA:1,2011-09-01T22:30:00Z,30.2583,-88.2131,4.507,5.83,1111122 
DISL,ioos:station:DISL:KATA:1,2011-09-01T23:00:00Z,30.2583,-88.2131,4.51,5.76,1111122 
DISL,ioos:station:DISL:KATA:1,2011-09-01T23:30:00Z,30.2583,-88.2131,4.525,5.79,1111122 
DISL,ioos:station:DISL:KATA:1,2011-09-02T00:00:00Z,30.2583,-88.2131,4.55,5.73,1111122 
DISL,ioos:station:DISL:KATA:1,2011-09-02T00:30:00Z,30.2583,-88.2131,4.567,5.71,1111122 
DISL,ioos:station:DISL:KATA:1,2011-09-02T01:00:00Z,30.2583,-88.2131,4.593,5.68,1111122 
DISL,ioos:station:DISL:KATA:1,2011-09-02T01:30:00Z,30.2583,-88.2131,4.626,5.64,1111122 
DISL,ioos:station:DISL:KATA:1,2011-09-02T02:00:00Z,30.2583,-88.2131,4.646,5.57,1111122 
DISL,ioos:station:DISL:KATA:1,2011-09-02T02:30:00Z,30.2583,-88.2131,4.693,5.44,1111122 
DISL,ioos:station:DISL:KATA:1,2011-09-02T03:00:00Z,30.2583,-88.2131,4.717,5.43,1111122 
DISL,ioos:station:DISL:KATA:1,2011-09-02T03:30:00Z,30.2583,-88.2131,4.741,5.54,1111122 
DISL,ioos:station:DISL:KATA:1,2011-09-02T04:00:00Z,30.2583,-88.2131,4.769,5.47,1111122 
DISL,ioos:station:DISL:KATA:1,2011-09-02T04:30:00Z,30.2583,-88.2131,4.785,5.48,1111122 
DISL,ioos:station:DISL:KATA:1,2011-09-02T05:00:00Z,30.2583,-88.2131,4.819,5.41,1111122 
DISL,ioos:station:DISL:KATA:1,2011-09-02T05:30:00Z,30.2583,-88.2131,4.825,5.3,1111122 
DISL,ioos:station:DISL:KATA:1,2011-09-02T06:00:00Z,30.2583,-88.2131,4.832,5.26,1111122 
DISL,ioos:station:DISL:KATA:1,2011-09-02T06:30:00Z,30.2583,-88.2131,4.834,5.17,1111122 
DISL,ioos:station:DISL:KATA:1,2011-09-02T07:00:00Z,30.2583,-88.2131,4.821,5.03,1111122 
DISL,ioos:station:DISL:KATA:1,2011-09-02T07:30:00Z,30.2583,-88.2131,4.811,4.93,1111122 
DISL,ioos:station:DISL:KATA:1,2011-09-02T08:00:00Z,30.2583,-88.2131,4.795,4.8,1111122 
DISL,ioos:station:DISL:KATA:1,2011-09-02T08:30:00Z,30.2583,-88.2131,4.804,4.59,1111122 
DISL,ioos:station:DISL:KATA:1,2011-09-02T09:00:00Z,30.2583,-88.2131,4.813,4.41,1111122 
DISL,ioos:station:DISL:KATA:1,2011-09-02T09:30:00Z,30.2583,-88.2131,4.799,4.41,1111122 
DISL,ioos:station:DISL:KATA:1,2011-09-02T10:00:00Z,30.2583,-88.2131,4.757,4.31,1111122 
DISL,ioos:station:DISL:KATA:1,2011-09-02T10:30:00Z,30.2583,-88.2131,4.705,4.24,1111122 
DISL,ioos:station:DISL:KATA:1,2011-09-02T11:00:00Z,30.2583,-88.2131,4.656,4.27,1111122 
DISL,ioos:station:DISL:KATA:1,2011-09-02T11:30:00Z,30.2583,-88.2131,4.615,4.32,1111122 
DISL,ioos:station:DISL:KATA:1,2011-09-02T12:00:00Z,30.2583,-88.2131,4.588,4.7,1111122 
DISL,ioos:station:DISL:KATA:1,2011-09-02T12:30:00Z,30.2583,-88.2131,4.554,5.14,1111122 
DISL,ioos:station:DISL:KATA:1,2011-09-02T13:00:00Z,30.2583,-88.2131,4.503,5.2,1111122 
DISL,ioos:station:DISL:KATA:1,2011-09-02T13:30:00Z,30.2583,-88.2131,4.454,5.28,1111122 
DISL,ioos:station:DISL:KATA:1,2011-09-02T14:00:00Z,30.2583,-88.2131,4.433,5.51,1111122 
DISL,ioos:station:DISL:KATA:1,2011-09-02T14:30:00Z,30.2583,-88.2131,4.437,5.51,1111122 
DISL,ioos:station:DISL:KATA:1,2011-09-02T15:00:00Z,30.2583,-88.2131,4.434,5.39,1111122 
DISL,ioos:station:DISL:KATA:1,2011-09-02T15:30:00Z,30.2583,-88.2131,4.404,5.39,1111122 
DISL,ioos:station:DISL:KATA:1,2011-09-02T16:00:00Z,30.2583,-88.2131,4.45,5.42,1111122 
DISL,ioos:station:DISL:KATA:1,2011-09-02T16:30:00Z,30.2583,-88.2131,4.442,5.35,1111122 
DISL,ioos:station:DISL:KATA:1,2011-09-02T17:00:00Z,30.2583,-88.2131,4.402,5.51,1111122 
DISL,ioos:station:DISL:KATA:1,2011-09-02T17:30:00Z,30.2583,-88.2131,4.356,5.69,1111122 
DISL,ioos:station:DISL:KATA:1,2011-09-02T18:00:00Z,30.2583,-88.2131,4.269,5.6,1111122 
DISL,ioos:station:DISL:KATA:1,2011-09-02T18:30:00Z,30.2583,-88.2131,4.237,5.49,1111122 
DISL,ioos:station:DISL:KATA:1,2011-09-02T19:00:00Z,30.2583,-88.2131,4.276,5.41,1111122 
DISL,ioos:station:DISL:KATA:1,2011-09-02T19:30:00Z,30.2583,-88.2131,4.32,5.48,1111122 
DISL,ioos:station:DISL:KATA:1,2011-09-02T20:00:00Z,30.2583,-88.2131,4.337,5.48,1111122 
DISL,ioos:station:DISL:KATA:1,2011-09-02T20:30:00Z,30.2583,-88.2131,4.363,5.46,1111122 
DISL,ioos:station:DISL:KATA:1,2011-09-02T21:00:00Z,30.2583,-88.2131,4.396,5.53,1111122 
DISL,ioos:station:DISL:KATA:1,2011-09-02T21:30:00Z,30.2583,-88.2131,4.428,5.62,1111122 
DISL,ioos:station:DISL:KATA:1,2011-09-02T22:00:00Z,30.2583,-88.2131,4.463,5.65,1111122 
DISL,ioos:station:DISL:KATA:1,2011-09-02T22:30:00Z,30.2583,-88.2131,4.481,5.62,1111122 
DISL,ioos:station:DISL:KATA:1,2011-09-02T23:00:00Z,30.2583,-88.2131,4.492,5.69,1111122 
DISL,ioos:station:DISL:KATA:1,2011-09-02T23:30:00Z,30.2583,-88.2131,4.554,5.68,1111122 
DISL,ioos:station:DISL:KATA:1,2011-09-03T00:00:00Z,30.2583,-88.2131,4.62,5.71,1111122 
DISL,ioos:station:DISL:KATA:1,2011-09-03T00:30:00Z,30.2583,-88.2131,4.658,5.76,1111122 
DISL,ioos:station:DISL:KATA:1,2011-09-03T01:00:00Z,30.2583,-88.2131,4.685,5.68,1111122 
DISL,ioos:station:DISL:KATA:1,2011-09-03T01:30:00Z,30.2583,-88.2131,4.684,5.65,1111122 
DISL,ioos:station:DISL:KATA:1,2011-09-03T02:00:00Z,30.2583,-88.2131,4.742,5.66,1111122 
DISL,ioos:station:DISL:KATA:1,2011-09-03T02:30:00Z,30.2583,-88.2131,4.756,5.64,1111122 
DISL,ioos:station:DISL:KATA:1,2011-09-03T03:00:00Z,30.2583,-88.2131,4.883,5.65,1111122 
DISL,ioos:station:DISL:KATA:1,2011-09-03T03:30:00Z,30.2583,-88.2131,4.913,5.66,1111122 
DISL,ioos:station:DISL:KATA:1,2011-09-03T04:00:00Z,30.2583,-88.2131,4.957,5.67,1111122 
DISL,ioos:station:DISL:KATA:1,2011-09-03T04:30:00Z,30.2583,-88.2131,4.99,5.66,1111122 
DISL,ioos:station:DISL:KATA:1,2011-09-03T05:00:00Z,30.2583,-88.2131,5.004,5.6,1111122 
DISL,ioos:station:DISL:KATA:1,2011-09-03T05:30:00Z,30.2583,-88.2131,5.01,5.56,1111122 
DISL,ioos:station:DISL:KATA:1,2011-09-03T06:00:00Z,30.2583,-88.2131,5.035,5.56,1111122 
DISL,ioos:station:DISL:KATA:1,2011-09-03T06:30:00Z,30.2583,-88.2131,5.042,5.51,1111122 
DISL,ioos:station:DISL:KATA:1,2011-09-03T07:00:00Z,30.2583,-88.2131,5.061,5.44,1111122 
DISL,ioos:station:DISL:KATA:1,2011-09-03T07:30:00Z,30.2583,-88.2131,5.097,5.45,1111122 
DISL,ioos:station:DISL:KATA:1,2011-09-03T08:00:00Z,30.2583,-88.2131,5.086,5.34,1111122 
DISL,ioos:station:DISL:KATA:1,2011-09-03T08:30:00Z,30.2583,-88.2131,5.084,5.29,1111122 
DISL,ioos:station:DISL:KATA:1,2011-09-03T09:00:00Z,30.2583,-88.2131,5.075,5.25,1111122 
DISL,ioos:station:DISL:KATA:1,2011-09-03T09:30:00Z,30.2583,-88.2131,5.08,5.32,1111122 
DISL,ioos:station:DISL:KATA:1,2011-09-03T10:00:00Z,30.2583,-88.2131,4.993,5.12,1111122 
DISL,ioos:station:DISL:KATA:1,2011-09-03T10:30:00Z,30.2583,-88.2131,4.988,5.25,1111122 
DISL,ioos:station:DISL:KATA:1,2011-09-03T11:00:00Z,30.2583,-88.2131,4.93,5.21,1111122 
DISL,ioos:station:DISL:KATA:1,2011-09-03T11:30:00Z,30.2583,-88.2131,4.888,5.28,1111122 
DISL,ioos:station:DISL:KATA:1,2011-09-03T12:00:00Z,30.2583,-88.2131,4.829,5.5,1111122 
DISL,ioos:station:DISL:KATA:1,2011-09-03T12:30:00Z,30.2583,-88.2131,4.803,5.63,1111122 
DISL,ioos:station:DISL:KATA:1,2011-09-03T13:00:00Z,30.2583,-88.2131,4.777,5.68,1111122 
DISL,ioos:station:DISL:KATA:1,2011-09-03T13:30:00Z,30.2583,-88.2131,4.671,5.67,1111122 
DISL,ioos:station:DISL:KATA:1,2011-09-03T14:00:00Z,30.2583,-88.2131,4.639,5.63,1111122 
DISL,ioos:station:DISL:KATA:1,2011-09-03T14:30:00Z,30.2583,-88.2131,4.598,5.7,1111122 
DISL,ioos:station:DISL:KATA:1,2011-09-03T15:00:00Z,30.2583,-88.2131,4.585,5.63,1111122 
DISL,ioos:station:DISL:KATA:1,2011-09-03T15:30:00Z,30.2583,-88.2131,4.625,5.62,1111122 
DISL,ioos:station:DISL:KATA:1,2011-09-03T16:00:00Z,30.2583,-88.2131,4.623,5.65,1111122 
DISL,ioos:station:DISL:KATA:1,2011-09-03T16:30:00Z,30.2583,-88.2131,4.611,5.7,1111122 
DISL,ioos:station:DISL:KATA:1,2011-09-03T17:00:00Z,30.2583,-88.2131,4.531,5.69,1111122 
DISL,ioos:station:DISL:KATA:1,2011-09-03T17:30:00Z,30.2583,-88.2131,4.519,5.85,1111122 
DISL,ioos:station:DISL:KATA:1,2011-09-03T18:00:00Z,30.2583,-88.2131,4.429,5.97,1111122 
DISL,ioos:station:DISL:KATA:1,2011-09-03T18:30:00Z,30.2583,-88.2131,4.46,5.92,1111122 
DISL,ioos:station:DISL:KATA:1,2011-09-03T19:00:00Z,30.2583,-88.2131,4.496,5.97,1111122 
DISL,ioos:station:DISL:KATA:1,2011-09-03T19:30:00Z,30.2583,-88.2131,4.541,6.04,1111122 
DISL,ioos:station:DISL:KATA:1,2011-09-03T20:00:00Z,30.2583,-88.2131,4.538,6.05,1111122 
DISL,ioos:station:DISL:KATA:1,2011-09-03T20:30:00Z,30.2583,-88.2131,4.399,6.09,1111122 
DISL,ioos:station:DISL:KATA:1,2011-09-03T21:00:00Z,30.2583,-88.2131,4.441,6.02,1111122 
DISL,ioos:station:DISL:KATA:1,2011-09-03T21:30:00Z,30.2583,-88.2131,4.576,6.12,1111122 
DISL,ioos:station:DISL:KATA:1,2011-09-03T22:00:00Z,30.2583,-88.2131,4.632,6.18,1111122 
DISL,ioos:station:DISL:KATA:1,2011-09-03T22:30:00Z,30.2583,-88.2131,4.644,6.19,1111122 
DISL,ioos:station:DISL:KATA:1,2011-09-03T23:00:00Z,30.2583,-88.2131,4.724,6.25,1111122 
DISL,ioos:station:DISL:KATA:1,2011-09-03T23:30:00Z,30.2583,-88.2131,4.793,6.25,1111122 
DISL,ioos:station:DISL:KATA:1,2011-09-04T00:00:00Z,30.2583,-88.2131,4.841,6.25,1111122 
DISL,ioos:station:DISL:KATA:1,2011-09-04T00:30:00Z,30.2583,-88.2131,4.856,6.22,1111122 
DISL,ioos:station:DISL:KATA:1,2011-09-04T01:00:00Z,30.2583,-88.2131,4.855,6.22,1111122 
DISL,ioos:station:DISL:KATA:1,2011-09-04T01:30:00Z,30.2583,-88.2131,4.83,6.22,1111122 
DISL,ioos:station:DISL:KATA:1,2011-09-04T02:00:00Z,30.2583,-88.2131,4.89,6.22,1111122 
DISL,ioos:station:DISL:KATA:1,2011-09-04T02:30:00Z,30.2583,-88.2131,4.887,6.22,1111122 
DISL,ioos:station:DISL:KATA:1,2011-09-04T03:00:00Z,30.2583,-88.2131,4.916,6.23,1111122 
DISL,ioos:station:DISL:KATA:1,2011-09-04T03:30:00Z,30.2583,-88.2131,4.955,6.2,1111122 
DISL,ioos:station:DISL:KATA:1,2011-09-04T04:00:00Z,30.2583,-88.2131,5.008,6.15,1111122 
DISL,ioos:station:DISL:KATA:1,2011-09-04T04:30:00Z,30.2583,-88.2131,5.008,6.17,1111122 
DISL,ioos:station:DISL:KATA:1,2011-09-04T05:00:00Z,30.2583,-88.2131,5.057,6.18,1111122 
DISL,ioos:station:DISL:KATA:1,2011-09-04T05:30:00Z,30.2583,-88.2131,5.115,6.12,1111122 
DISL,ioos:station:DISL:KATA:1,2011-09-04T06:00:00Z,30.2583,-88.2131,5.186,6.02,1111122 
DISL,ioos:station:DISL:KATA:1,2011-09-04T06:30:00Z,30.2583,-88.2131,5.237,6.11,1111122 
DISL,ioos:station:DISL:KATA:1,2011-09-04T07:00:00Z,30.2583,-88.2131,5.222,6.06,1111122 
DISL,ioos:station:DISL:KATA:1,2011-09-04T07:30:00Z,30.2583,-88.2131,5.27,6.04,1111122 
DISL,ioos:station:DISL:KATA:1,2011-09-04T08:00:00Z,30.2583,-88.2131,5.263,6.01,1111122 
DISL,ioos:station:DISL:KATA:1,2011-09-04T08:30:00Z,30.2583,-88.2131,5.259,5.97,1111122 
DISL,ioos:station:DISL:KATA:1,2011-09-04T09:00:00Z,30.2583,-88.2131,5.238,5.97,1111122 
DISL,ioos:station:DISL:KATA:1,2011-09-04T09:30:00Z,30.2583,-88.2131,5.218,5.86,1111122 
DISL,ioos:station:DISL:KATA:1,2011-09-04T10:00:00Z,30.2583,-88.2131,5.21,5.97,1111122 
DISL,ioos:station:DISL:KATA:1,2011-09-04T10:30:00Z,30.2583,-88.2131,5.115,5.8,1111122 
DISL,ioos:station:DISL:KATA:1,2011-09-04T11:00:00Z,30.2583,-88.2131,5.087,5.82,1111122 
DISL,ioos:station:DISL:KATA:1,2011-09-04T11:30:00Z,30.2583,-88.2131,5.103,5.74,1111122 
DISL,ioos:station:DISL:KATA:1,2011-09-04T12:00:00Z,30.2583,-88.2131,5.136,5.65,1111122 
DISL,ioos:station:DISL:KATA:1,2011-09-04T12:30:00Z,30.2583,-88.2131,5.104,5.84,1111122 
DISL,ioos:station:DISL:KATA:1,2011-09-04T13:00:00Z,30.2583,-88.2131,5.09,5.97,1111122 
DISL,ioos:station:DISL:KATA:1,2011-09-04T13:30:00Z,30.2583,-88.2131,5.032,5.94,1111122 
DISL,ioos:station:DISL:KATA:1,2011-09-04T14:00:00Z,30.2583,-88.2131,4.96,5.87,1111122 
DISL,ioos:station:DISL:KATA:1,2011-09-04T14:30:00Z,30.2583,-88.2131,4.936,5.92,1111122 
DISL,ioos:station:DISL:KATA:1,2011-09-04T15:00:00Z,30.2583,-88.2131,4.865,5.86,1111122 
DISL,ioos:station:DISL:KATA:1,2011-09-04T15:30:00Z,30.2583,-88.2131,4.804,6.01,1111122 
DISL,ioos:station:DISL:KATA:1,2011-09-04T16:00:00Z,30.2583,-88.2131,4.746,6.07,1111122 
DISL,ioos:station:DISL:KATA:1,2011-09-04T16:30:00Z,30.2583,-88.2131,4.719,6.17,1111122 
DISL,ioos:station:DISL:KATA:1,2011-09-04T17:00:00Z,30.2583,-88.2131,4.697,6.25,1111122 
DISL,ioos:station:DISL:KATA:1,2011-09-04T17:30:00Z,30.2583,-88.2131,4.641,6.21,1111122 
DISL,ioos:station:DISL:KATA:1,2011-09-04T18:00:00Z,30.2583,-88.2131,4.629,6.15,1111122 
DISL,ioos:station:DISL:KATA:1,2011-09-04T18:30:00Z,30.2583,-88.2131,4.656,6.14,1111122 
DISL,ioos:station:DISL:KATA:1,2011-09-04T19:00:00Z,30.2583,-88.2131,4.665,6.1,1111122 
DISL,ioos:station:DISL:KATA:1,2011-09-04T19:30:00Z,30.2583,-88.2131,4.66,6.06,1111122 
DISL,ioos:station:DISL:KATA:1,2011-09-04T20:00:00Z,30.2583,-88.2131,4.671,6.15,1111122 
DISL,ioos:station:DISL:KATA:1,2011-09-04T20:30:00Z,30.2583,-88.2131,4.726,6.09,1111122 
DISL,ioos:station:DISL:KATA:1,2011-09-04T21:00:00Z,30.2583,-88.2131,4.658,6.18,1111122 
DISL,ioos:station:DISL:KATA:1,2011-09-04T21:30:00Z,30.2583,-88.2131,4.622,6.16,1111122 
DISL,ioos:station:DISL:KATA:1,2011-09-04T22:00:00Z,30.2583,-88.2131,4.593,6.17,1111122 
DISL,ioos:station:DISL:KATA:1,2011-09-04T22:30:00Z,30.2583,-88.2131,4.581,6.07,1111122 
DISL,ioos:station:DISL:KATA:1,2011-09-04T23:00:00Z,30.2583,-88.2131,4.582,5.98,1111122 
DISL,ioos:station:DISL:KATA:1,2011-09-04T23:30:00Z,30.2583,-88.2131,4.609,5.97,1111122 
DISL,ioos:station:DISL:KATA:1,2011-09-05T00:00:00Z,30.2583,-88.2131,4.646,5.9,1111122 
DISL,ioos:station:DISL:KATA:1,2011-09-05T00:30:00Z,30.2583,-88.2131,4.699,5.87,1111122 
DISL,ioos:station:DISL:KATA:1,2011-09-05T01:00:00Z,30.2583,-88.2131,4.76,5.85,1111122 
DISL,ioos:station:DISL:KATA:1,2011-09-05T01:30:00Z,30.2583,-88.2131,4.802,5.8,1111122 
DISL,ioos:station:DISL:KATA:1,2011-09-05T02:00:00Z,30.2583,-88.2131,4.83,5.75,1111122 
DISL,ioos:station:DISL:KATA:1,2011-09-05T02:30:00Z,30.2583,-88.2131,4.81,5.7,1111122 
DISL,ioos:station:DISL:KATA:1,2011-09-05T03:00:00Z,30.2583,-88.2131,4.836,5.67,1111122 
DISL,ioos:station:DISL:KATA:1,2011-09-05T03:30:00Z,30.2583,-88.2131,4.876,5.84,1111122 
DISL,ioos:station:DISL:KATA:1,2011-09-05T04:00:00Z,30.2583,-88.2131,4.898,5.84,1111122 
DISL,ioos:station:DISL:KATA:1,2011-09-05T04:30:00Z,30.2583,-88.2131,4.943,5.78,1111122 
DISL,ioos:station:DISL:KATA:1,2011-09-05T05:00:00Z,30.2583,-88.2131,4.957,5.81,1111122 
DISL,ioos:station:DISL:KATA:1,2011-09-05T05:30:00Z,30.2583,-88.2131,4.983,5.91,1111122 
DISL,ioos:station:DISL:KATA:1,2011-09-05T06:00:00Z,30.2583,-88.2131,4.989,6.01,1111122 
DISL,ioos:station:DISL:KATA:1,2011-09-05T06:30:00Z,30.2583,-88.2131,5.003,5.99,1111122 
DISL,ioos:station:DISL:KATA:1,2011-09-05T07:00:00Z,30.2583,-88.2131,5.038,5.98,1111122 
DISL,ioos:station:DISL:KATA:1,2011-09-05T07:30:00Z,30.2583,-88.2131,5.047,5.99,1111122 
DISL,ioos:station:DISL:KATA:1,2011-09-05T08:00:00Z,30.2583,-88.2131,5.073,6.0,1111122 
DISL,ioos:station:DISL:KATA:1,2011-09-05T08:30:00Z,30.2583,-88.2131,5.108,5.96,1111122 
DISL,ioos:station:DISL:KATA:1,2011-09-05T09:00:00Z,30.2583,-88.2131,5.149,5.9,1111122 
DISL,ioos:station:DISL:KATA:1,2011-09-05T09:30:00Z,30.2583,-88.2131,5.12,5.91,1111122 
DISL,ioos:station:DISL:KATA:1,2011-09-05T10:00:00Z,30.2583,-88.2131,5.121,5.92,1111122 
DISL,ioos:station:DISL:KATA:1,2011-09-05T10:30:00Z,30.2583,-88.2131,5.127,5.95,1111122 
DISL,ioos:station:DISL:KATA:1,2011-09-05T11:00:00Z,30.2583,-88.2131,5.121,5.89,1111122 
DISL,ioos:station:DISL:KATA:1,2011-09-05T11:30:00Z,30.2583,-88.2131,5.124,5.87,1111122 
DISL,ioos:station:DISL:KATA:1,2011-09-05T12:00:00Z,30.2583,-88.2131,5.093,5.89,1111122 
DISL,ioos:station:DISL:KATA:1,2011-09-05T12:30:00Z,30.2583,-88.2131,5.142,5.92,1111122 
DISL,ioos:station:DISL:KATA:1,2011-09-05T13:00:00Z,30.2583,-88.2131,5.086,5.99,1111122 
DISL,ioos:station:DISL:KATA:1,2011-09-05T13:30:00Z,30.2583,-88.2131,5.118,5.91,1111122 
DISL,ioos:station:DISL:KATA:1,2011-09-05T14:00:00Z,30.2583,-88.2131,5.201,5.97,1111122 
DISL,ioos:station:DISL:KATA:1,2011-09-05T14:30:00Z,30.2583,-88.2131,5.03,5.97,1111122 
DISL,ioos:station:DISL:KATA:1,2011-09-05T15:00:00Z,30.2583,-88.2131,4.943,6.01,1111122 
DISL,ioos:station:DISL:KATA:1,2011-09-05T15:30:00Z,30.2583,-88.2131,4.906,6.1,1111122 
DISL,ioos:station:DISL:KATA:1,2011-09-05T16:00:00Z,30.2583,-88.2131,4.991,6.11,1111122 
DISL,ioos:station:DISL:KATA:1,2011-09-05T16:30:00Z,30.2583,-88.2131,4.893,6.15,1111122 
DISL,ioos:station:DISL:KATA:1,2011-09-05T17:00:00Z,30.2583,-88.2131,4.877,6.16,1111122 
DISL,ioos:station:DISL:KATA:1,2011-09-05T17:30:00Z,30.2583,-88.2131,4.848,6.15,1111122 
DISL,ioos:station:DISL:KATA:1,2011-09-05T18:00:00Z,30.2583,-88.2131,4.938,6.16,1111122 
DISL,ioos:station:DISL:KATA:1,2011-09-05T18:30:00Z,30.2583,-88.2131,4.777,6.14,1111122 
DISL,ioos:station:DISL:KATA:1,2011-09-05T19:00:00Z,30.2583,-88.2131,4.821,6.07,1111122 
DISL,ioos:station:DISL:KATA:1,2011-09-05T19:30:00Z,30.2583,-88.2131,4.757,6.11,1111122 
DISL,ioos:station:DISL:KATA:1,2011-09-05T20:00:00Z,30.2583,-88.2131,4.698,6.15,1111122 
DISL,ioos:station:DISL:KATA:1,2011-09-05T20:30:00Z,30.2583,-88.2131,4.691,6.13,1111122 
DISL,ioos:station:DISL:KATA:1,2011-09-05T21:00:00Z,30.2583,-88.2131,4.388,6.0,1111122 
DISL,ioos:station:DISL:KATA:1,2011-09-05T21:30:00Z,30.2583,-88.2131,4.396,5.89,1111122 
DISL,ioos:station:DISL:KATA:1,2011-09-05T22:00:00Z,30.2583,-88.2131,4.303,5.66,1111122 
DISL,ioos:station:DISL:KATA:1,2011-09-05T22:30:00Z,30.2583,-88.2131,4.3,5.51,1111122 
DISL,ioos:station:DISL:KATA:1,2011-09-05T23:00:00Z,30.2583,-88.2131,4.301,5.47,1111122 
DISL,ioos:station:DISL:KATA:1,2011-09-05T23:30:00Z,30.2583,-88.2131,4.256,5.74,1111122 
DISL,ioos:station:DISL:KATA:1,2011-09-06T00:00:00Z,30.2583,-88.2131,4.34,5.79,1111122 
DISL,ioos:station:DISL:KATA:1,2011-09-06T00:30:00Z,30.2583,-88.2131,4.409,5.74,1111122 
DISL,ioos:station:DISL:KATA:1,2011-09-06T01:00:00Z,30.2583,-88.2131,4.417,5.72,1111122 
DISL,ioos:station:DISL:KATA:1,2011-09-06T01:30:00Z,30.2583,-88.2131,4.403,5.8,1111122 
DISL,ioos:station:DISL:KATA:1,2011-09-06T02:00:00Z,30.2583,-88.2131,4.345,5.96,1111122 
DISL,ioos:station:DISL:KATA:1,2011-09-06T02:30:00Z,30.2583,-88.2131,4.482,5.84,1111122 
DISL,ioos:station:DISL:KATA:1,2011-09-06T03:00:00Z,30.2583,-88.2131,4.405,5.97,1111122 
DISL,ioos:station:DISL:KATA:1,2011-09-06T03:30:00Z,30.2583,-88.2131,4.419,5.88,1111122 
DISL,ioos:station:DISL:KATA:1,2011-09-06T04:00:00Z,30.2583,-88.2131,4.488,5.9,1111122 
DISL,ioos:station:DISL:KATA:1,2011-09-06T04:30:00Z,30.2583,-88.2131,4.502,5.89,1111122 
DISL,ioos:station:DISL:KATA:1,2011-09-06T05:00:00Z,30.2583,-88.2131,4.533,5.89,1111122 
DISL,ioos:station:DISL:KATA:1,2011-09-06T05:30:00Z,30.2583,-88.2131,4.576,5.92,1111122 
DISL,ioos:station:DISL:KATA:1,2011-09-06T06:00:00Z,30.2583,-88.2131,4.607,5.94,1111122 
DISL,ioos:station:DISL:KATA:1,2011-09-06T06:30:00Z,30.2583,-88.2131,4.635,5.5,1111122 
DISL,ioos:station:DISL:KATA:1,2011-09-06T07:00:00Z,30.2583,-88.2131,4.661,5.21,1111122 
DISL,ioos:station:DISL:KATA:1,2011-09-06T07:30:00Z,30.2583,-88.2131,4.724,5.65,1111122 
DISL,ioos:station:DISL:KATA:1,2011-09-06T08:00:00Z,30.2583,-88.2131,4.753,5.97,1111122 
DISL,ioos:station:DISL:KATA:1,2011-09-06T08:30:00Z,30.2583,-88.2131,4.799,6.01,1111122 
DISL,ioos:station:DISL:KATA:1,2011-09-06T09:00:00Z,30.2583,-88.2131,4.835,5.8,1111122 
DISL,ioos:station:DISL:KATA:1,2011-09-06T09:30:00Z,30.2583,-88.2131,4.87,5.7,1111122 
DISL,ioos:station:DISL:KATA:1,2011-09-06T10:00:00Z,30.2583,-88.2131,4.885,5.96,1111122 
DISL,ioos:station:DISL:KATA:1,2011-09-06T10:30:00Z,30.2583,-88.2131,4.896,6.04,1111122 
DISL,ioos:station:DISL:KATA:1,2011-09-06T11:00:00Z,30.2583,-88.2131,4.893,6.02,1111122 
DISL,ioos:station:DISL:KATA:1,2011-09-06T11:30:00Z,30.2583,-88.2131,4.888,6.0,1111122 
DISL,ioos:station:DISL:KATA:1,2011-09-06T12:00:00Z,30.2583,-88.2131,4.877,6.01,1111122 
DISL,ioos:station:DISL:KATA:1,2011-09-06T13:00:00Z,30.2583,-88.2131,4.865,6.01,1111122 
DISL,ioos:station:DISL:KATA:1,2011-09-06T13:30:00Z,30.2583,-88.2131,4.837,5.95,1111122 
DISL,ioos:station:DISL:KATA:1,2011-09-06T14:00:00Z,30.2583,-88.2131,4.818,5.88,1111122 
DISL,ioos:station:DISL:KATA:1,2011-09-06T14:30:00Z,30.2583,-88.2131,4.787,5.99,1111122 
DISL,ioos:station:DISL:KATA:1,2011-09-06T15:00:00Z,30.2583,-88.2131,4.756,6.02,1111122 
DISL,ioos:station:DISL:KATA:1,2011-09-06T15:30:00Z,30.2583,-88.2131,4.718,6.13,1111122 
DISL,ioos:station:DISL:KATA:1,2011-09-06T16:00:00Z,30.2583,-88.2131,4.666,6.21,1111122 